Flag for Czech Republic Weather past 2 weeks in Plzen, Czech Republic

Now
50 °F

Overcast.


Feels Like: 49 °F
Forecast: 39 / 67 °F
Wind: 5 mph from Northwest

Location: Kocelovice

Current Time: May 27, 2015 at 7:14:21 PM

Latest Report: May 27, 2015 at 6:00 PM


Visibility: 25 mi

Pressure: 30.16 "Hg

Humidity: 54%

Dew point: 34 °F

Location of PlzenLocation

Historic Weather in Plzen — Graph

°F

Plzen temperature yesterday

Maximum temperature yesterday: 53 °F (at 5:00 PM)
Minimum temperature yesterday: 48 °F (at 10:00 PM)
Average temperature yesterday: 51 °F

Past Weeks' High & Low Weather Summary

 TemperatureHumidityPressure
High76 °F (May 12, 5:00 PM)98% (May 20, 2:00 AM)30.32 "Hg (May 20, 2:00 AM)
Low38 °F (May 18, 5:00 AM)31% (May 13, 4:00 PM)29.70 "Hg (May 18, 8:00 PM)
Average54 °F70%30.02 "Hg
* Reported May 12 5:00 PM — May 27 5:00 PM, Plzen, Weather by CustomWeather, © 2015

Note: Actual official high and low records may vary slightly from our data, if they occured in-between our weather recording intervals... More about our weather records

Advertising

Plzen weather history for previous 24 hours

 ConditionsComfort  
Time TempWeatherWind HumidityBarometerVisibility
5:00 PM
Wed, May 27
52 °FOvercast.5 mph54%30.15 "Hg25 mi
4:00 PM49 °FOvercast.6 mph62%30.17 "Hg22 mi
3:00 PM50 °FOvercast.6 mph57%30.16 "Hg19 mi
2:00 PM51 °FOvercast.7 mph57%30.15 "Hg16 mi
1:00 PM49 °FOvercast.6 mph61%30.16 "Hg16 mi
12:00 PM49 °FOvercast.5 mph63%30.15 "Hg15 mi
11:00 AM49 °FOvercast.6 mph64%30.16 "Hg14 mi
10:00 AM48 °FOvercast.6 mph68%30.16 "Hg14 mi
9:00 AM47 °FOvercast.6 mph78%30.16 "Hg14 mi
8:00 AM45 °FOvercast.5 mph82%30.16 "Hg14 mi
7:00 AM45 °FQuite cool.3 mph81%30.16 "Hg12 mi
6:00 AM45 °FQuite cool.3 mph81%30.15 "Hg12 mi
5:00 AM45 °FQuite cool.3 mph81%30.14 "Hg12 mi
4:00 AM45 °FCool.5 mph79%30.12 "Hg12 mi
3:00 AM46 °FCool.5 mph78%30.11 "Hg12 mi
2:00 AM46 °FCool.5 mph79%30.12 "Hg12 mi
1:00 AM47 °FCool.3 mph77%30.11 "Hg12 mi
12:00 AM47 °FCool.3 mph70%30.11 "Hg12 mi
10:00 PM
Tue, May 26
48 °FOvercast.2 mph69%30.10 "Hg19 mi
9:00 PM50 °FOvercast.5 mph65%30.07 "Hg19 mi
8:00 PM52 °FOvercast.2 mph66%30.04 "Hg16 mi
7:00 PM52 °FOvercast.N/A68%30.02 "Hg16 mi
Weather by CustomWeather, © 2015

See weather overviewHow to use our weather pages